Weather in Saint-Tropez

France     43°15′59″N   6°38′10″E
temp.,
°C
wind,
m/s
gust,
m/s
humid.,
%
clouds,
%
prec.,
mm/h
press.,
hPa
HPBL,
m
30 june, thu
thu3023:00+24nnw14720 0.0 1011171
02:00+23ene12760 0.0 1012251
05:00+23n11780 0.0 1012189
08:00+22n22740 0.0 1012227
11:00+23ene34770 0.0 1013351
14:00+23ese21755 0.0 1013317
17:00+24ssw56695 0.0 1013402
20:00+25wsw346668 0.0 1011103
1 july, fri
fri123:00+24w2369100 0.0 101355
02:00+24wnw456381 0.0 1013127
05:00+23w45668 0.0 1012145
08:00+23wnw35661 0.0 1012199
11:00+26wsw45590 0.0 1013128
14:00+27sw68520 0.0 1012249
17:00+28sw910430 0.0 1012263
20:00+27w36525 0.0 1012106
2 july, sat
sat223:00+24ne56745 0.0 1015120
02:00+23nne58765 0.0 1016330
05:00+23nnw45615 0.0 1017195
08:00+22nnw45560 0.0 1018170
11:00+24ne467015 0.0 1019299
14:00+24ene4576100 0.0 1019226
17:00+24ese23735 0.0 1018135
20:00+25ssw23700 0.0 1018115
3 july, sun
sun323:00+25wnw12685 0.0 101919
02:00+24w22652 0.0 101833
05:00+24wnw33600 0.0 101755
08:00+24nw23564 0.0 101859
11:00+26sse11550 0.0 101866
14:00+26sse22510 0.0 1018122
17:00+25sw56600 0.0 1017183
20:00+26sw456316 0.0 101675
4 july, mon
mon423:00+26w3364100 0.0 101743
02:00+26nw11613 0.0 101617
05:00+25n225711 0.0 101618
08:00+25nne44676 0.0 101677
11:00+25ene457443 0.0 1017157
14:00+25e44732 0.0 1017124
17:00+25s23690 0.0 1016109
20:00+26sw44680 0.0 1015105